Flag for Germany Weather past 2 weeks in Rheda-Wiedenbrück, North Rhine-Westphalia, Germany

Now
32 °F

Broken clouds.


Feels Like: 24 °F
Forecast: 29 / 38 °F
Wind: 10 mph from Northwest

Location: Paderborn / Lippstadt

Current Time: Dec 29, 2014 at 12:00:49 PM

Latest Report: Dec 29, 2014 at 11:20 AM


Visibility: N/A

Pressure: 30.36 "Hg

Humidity: 100%

Dew point: 32 °F

Location of Rheda-WiedenbrückLocation

Historic Weather in Rheda-Wiedenbrück — Graph

°F

Rheda-Wiedenbrück temperature yesterday

Maximum temperature yesterday: 28 °F (at 2:20 PM)
Minimum temperature yesterday: 18 °F (at 6:50 AM)
Average temperature yesterday: 24 °F

Past Weeks' High & Low Weather Summary

 TemperatureHumidityPressure
High54 °F (Dec 18, 5:50 PM)100% (Dec 16, 3:50 AM)30.45 "Hg (Dec 16, 3:50 AM)
Low18 °F (Dec 28, 6:50 AM)51% (Dec 27, 7:20 PM)29.50 "Hg (Dec 27, 1:50 PM)
Average39 °F86%29.99 "Hg
* Reported Dec 14 10:20 AM — Dec 29 10:50 AM, Rheda-Wiedenbrück, Weather by CustomWeather, © 2014

Note: Actual official high and low records may vary slightly from our data, if they occured in-between our weather recording intervals... More about our weather records

Advertising

Rheda-Wiedenbrück weather history for previous 24 hours

 ConditionsComfort  
Time TempWeatherWind HumidityBarometerVisibility
10:50 AM
Dec 29
32 °FBroken clouds.8 mph100%30.36 "Hg4 mi
10:20 AM32 °FIce fog.7 mph93%30.36 "Hg2 mi
9:50 AM32 °FIce fog.8 mph93%30.33 "Hg2 mi
9:20 AM30 °FIce fog.9 mph100%30.33 "Hg1 mi
8:50 AM30 °FLight snow. Ice fog.13 mph100%30.30 "Hg1 mi
8:20 AM30 °FLight snow. Ice fog.15 mph100%30.30 "Hg1 mi
7:50 AM28 °FSnow. Ice fog.14 mph100%30.30 "Hg1 mi
7:20 AM28 °FLight snow. Ice fog.12 mph100%30.30 "Hg2 mi
6:50 AM28 °FLight snow. Ice fog.12 mph100%30.30 "Hg2 mi
6:20 AM28 °FLight snow. Ice fog.10 mph93%30.30 "Hg3 mi
5:50 AM28 °FLight snow. Ice fog.12 mph93%30.30 "Hg3 mi
5:20 AM28 °FLight snow. Passing clouds.14 mph100%30.30 "Hg4 mi
4:50 AM28 °FLight snow. Passing clouds.17 mph100%30.30 "Hg4 mi
4:20 AM28 °FLight snow. Ice fog.13 mph100%30.33 "Hg3 mi
3:50 AM28 °FSnow. Ice fog.13 mph100%30.33 "Hg1 mi
3:20 AM28 °FPassing clouds.15 mph93%30.33 "HgN/A
2:50 AM30 °FPassing clouds.14 mph75%30.36 "HgN/A
2:20 AM30 °FPassing clouds.13 mph75%30.36 "HgN/A
1:50 AM28 °FPassing clouds.10 mph80%30.39 "HgN/A
1:20 AM28 °FPassing clouds.13 mph80%30.39 "HgN/A
12:50 AM28 °FPassing clouds.14 mph80%30.39 "HgN/A
12:20 AM28 °FPassing clouds.12 mph80%30.42 "HgN/A
11:50 PM
Dec 28
28 °FPassing clouds.10 mph80%30.42 "HgN/A
11:20 PM28 °FPassing clouds.9 mph80%30.42 "HgN/A
10:50 PM28 °FPassing clouds.8 mph80%30.42 "HgN/A
10:20 PM28 °FPassing clouds.8 mph80%30.42 "HgN/A
9:50 PM27 °FPassing clouds.5 mph86%30.45 "HgN/A
9:20 PM27 °FPassing clouds.6 mph86%30.45 "HgN/A
8:50 PM27 °FPassing clouds.6 mph86%30.45 "HgN/A
8:20 PM27 °FPassing clouds.6 mph86%30.45 "HgN/A
7:50 PM27 °FPassing clouds.5 mph86%30.45 "HgN/A
7:20 PM25 °FPassing clouds.5 mph86%30.45 "HgN/A
6:50 PM25 °FPartly cloudy.5 mph86%30.42 "HgN/A
6:20 PM25 °FPassing clouds.5 mph86%30.42 "HgN/A
5:50 PM25 °FPassing clouds.3 mph86%30.42 "HgN/A
5:20 PM25 °FPassing clouds.3 mph86%30.39 "HgN/A
4:50 PM27 °FPassing clouds.3 mph80%30.36 "HgN/A
4:20 PM27 °FPartly sunny.3 mph74%30.36 "HgN/A
3:50 PM27 °FPartly sunny.5 mph74%30.33 "HgN/A
3:20 PM28 °FPartly sunny.5 mph69%30.33 "HgN/A
2:50 PM28 °FPartly sunny.7 mph69%30.33 "HgN/A
2:20 PM28 °FPartly sunny.7 mph64%30.30 "HgN/A
1:50 PM27 °FPassing clouds.6 mph59%30.30 "HgN/A
1:20 PM27 °FPassing clouds.6 mph59%30.30 "HgN/A
12:50 PM25 °FSunny.2 mph59%30.30 "Hg10 mi
12:20 PM25 °FPassing clouds.5 mph63%30.27 "HgN/A
Weather by CustomWeather, © 2014

See weather overviewHow to use our weather pages